Home > Weather > Auxerre > Past weeks

Flag for France Past Weather in Auxerre, Burgundy, France — Yesterday and Last 2 Weeks

Now
70 °F

Sunny.


Feels Like: 70 °F
Forecast: 56 / 69 °F
Wind: No wind

Location: Troyes Airport

Current Time: Jun 24, 2016 at 10:28:25 PM

Latest Report: Jun 24, 2016 at 10:00 PM


Visibility: 10 mi

Pressure: 30.07 "Hg

Humidity: 83%

Dew Point: 64 °F

Location of AuxerreLocation

Past Weather in Auxerre — Graph

°F

Auxerre Temperature Yesterday

Maximum temperature yesterday: 93 °F (at 6:00 PM)
Minimum temperature yesterday: 64 °F (at 4:30 AM)
Average temperature yesterday: 79 °F

High & Low Weather Summary for the Past Weeks

 TemperatureHumidityPressure
High93 °F (Jun 23, 6:00 PM)100% (Jun 10, 2:00 AM)30.30 "Hg (Jun 10, 2:00 AM)
Low48 °F (Jun 10, 6:00 AM)41% (Jun 23, 4:00 PM)29.50 "Hg (Jun 15, 5:30 AM)
Average64 °F83%29.92 "Hg
* Reported Jun 9 9:00 PM — Jun 24 9:30 PM, Auxerre, Weather by CustomWeather, © 2016

Note: Actual official high and low records may vary slightly from our data, if they occured in-between our weather recording intervals... More about our weather records

Advertising

Auxerre Weather History for the Previous 24 Hours

Scroll right to see more
 ConditionsComfort  
Time TempWeatherWind HumidityBarometerVisibility
9:30 PM
Fri, Jun 24
70 °FSunny.3 mph83%30.04 "Hg10 mi
9:00 PM70 °FMild.5 mph83%30.07 "HgN/A
8:30 PM70 °FSunny.6 mph88%30.07 "Hg10 mi
8:00 PM72 °FSunny.6 mph83%30.07 "Hg10 mi
7:30 PM73 °FSunny.6 mph78%30.07 "Hg10 mi
7:00 PM75 °FSunny.7 mph74%30.07 "Hg10 mi
6:30 PM75 °FSunny.9 mph74%30.07 "Hg10 mi
6:00 PM73 °FScattered clouds.9 mph78%30.07 "HgN/A
5:30 PM75 °FScattered clouds.9 mph74%30.07 "HgN/A
5:00 PM75 °FScattered clouds.8 mph74%30.07 "HgN/A
4:30 PM75 °FScattered clouds.6 mph74%30.07 "HgN/A
4:00 PM75 °FScattered clouds.1 mph74%30.09 "HgN/A
3:30 PM73 °FPassing clouds.2 mph78%30.09 "HgN/A
3:00 PM73 °FPassing clouds.2 mph78%30.09 "HgN/A
2:30 PM73 °FBroken clouds.1 mph78%30.09 "HgN/A
2:00 PM72 °FPartly sunny.3 mph83%30.09 "HgN/A
1:30 PM73 °FPartly sunny.1 mph78%30.09 "HgN/A
1:00 PM72 °FPartly sunny.1 mph83%30.09 "HgN/A
12:30 PM70 °FOvercast.3 mph88%30.12 "HgN/A
12:00 PM70 °FLow clouds.3 mph88%30.12 "HgN/A
11:30 AM70 °FLow clouds.No wind88%30.12 "HgN/A
11:00 AM70 °FLow clouds.5 mph88%30.12 "HgN/A
10:30 AM68 °FLow clouds.7 mph94%30.12 "HgN/A
10:00 AM68 °FLow clouds.7 mph88%30.09 "HgN/A
9:30 AM68 °FLow clouds.6 mph88%30.09 "HgN/A
9:00 AM68 °FLow clouds.8 mph94%30.09 "HgN/A
8:30 AM68 °FPartly sunny.9 mph94%30.09 "HgN/A
8:00 AM68 °FScattered clouds.7 mph94%30.07 "HgN/A
7:30 AM68 °FMostly cloudy.8 mph100%30.07 "HgN/A
7:00 AM68 °FPartly sunny.7 mph100%30.07 "Hg6 mi
6:30 AM68 °FLow clouds.7 mph100%30.07 "Hg6 mi
6:00 AM66 °FPartly cloudy.6 mph100%30.04 "HgN/A
5:30 AM68 °FClear.8 mph94%30.04 "Hg10 mi
5:00 AM68 °FClear.9 mph94%30.04 "Hg10 mi
4:30 AM70 °FClear.5 mph88%30.04 "Hg10 mi
4:00 AM70 °FClear.3 mph88%30.04 "Hg10 mi
3:30 AM70 °FMild.5 mph94%30.04 "HgN/A
3:00 AM70 °FMild.8 mph94%30.04 "HgN/A
2:30 AM70 °FClear.5 mph94%30.04 "Hg10 mi
2:00 AM72 °FClear.5 mph88%30.04 "Hg10 mi
1:30 AM72 °FPassing clouds.5 mph88%30.01 "HgN/A
1:00 AM73 °FPassing clouds.3 mph78%30.01 "HgN/A
12:30 AM72 °FPassing clouds.5 mph83%30.01 "HgN/A
12:00 AM73 °FClear.No wind78%30.01 "Hg10 mi
11:30 PM
Thu, Jun 23
73 °FClear.No wind83%30.01 "Hg10 mi
11:00 PM73 °FClear.No wind78%30.01 "Hg10 mi
10:30 PM73 °FSunny.6 mph78%29.98 "Hg10 mi
10:00 PM75 °FSunny.7 mph78%29.98 "Hg10 mi
Weather by CustomWeather, © 2016

See weather overviewHow to use our weather pages